Location: Castro Valley
(37.6940°N, 122.0850°W)
Time: 21:18:50
(UTC-07:00)

Amateur Radio Satellites - All Passes

Search period start: 30 August 2016 20:48
Search period end: 31 August 2016 20:48
Location: Castro Valley, 37.6940°N, 122.0850°W

Satellite Date Start Highest point End Downlink Frequencies (MHz)
Time Altitude Azimuth
Cosmos 2504 30 Aug 20:52:10 20:55:48 15° 280° (W) 20:59:26 435.465 / 435.565
AAUSAT CUBESAT 2 30 Aug 20:53:56 20:58:01 77° 77° (ENE) 21:02:08 437.432
UWE-3 30 Aug 21:00:44 21:05:12 57° 75° (ENE) 21:09:34 435.000/436.395/437.385
CANX-2 30 Aug 21:02:34 21:06:05 26° 264° (W) 21:09:36 2200.000
COMPASS 1 30 Aug 21:05:38 21:09:41 58° 259° (W) 21:13:46 437.405
ZACube-1 30 Aug 21:07:34 21:11:45 41° 73° (ENE) 21:15:50 437.345
CUTE 1.7 + AOD 2 30 Aug 21:07:56 21:11:27 26° 264° (W) 21:15:00 437.475
CUBEBUG 2 30 Aug 21:10:25 21:15:05 74° 259° (WSW) 21:19:38 437.445
AIST 2 30 Aug 21:10:49 21:15:02 84° 241° (WSW) 21:19:12 435.215
PCSat 30 Aug 21:13:24 21:18:50 78° 245° (WSW) 21:24:14 145.827
CINEMA 3 30 Aug 21:17:39 21:21:17 20° 267° (W) 21:24:53 145.822/145.860
GONETS M04 30 Aug 21:19:12 21:21:34 11° 59° (ENE) 21:23:55
STRAND 1 30 Aug 21:21:43 21:26:13 32° 291° (WNW) 21:30:42 437.568
HUMSAT D 30 Aug 21:25:32 21:27:10 12° 65° (ENE) 21:28:48 437.325/437.525
PRISM 30 Aug 21:33:25 21:37:23 40° 99° (E) 21:41:18 437.425
Cosmos 2499 30 Aug 21:53:34 21:55:27 11° 63° (ENE) 21:57:21 435.465 / 435.565
DELFI C3 30 Aug 22:02:42 22:06:36 72° 76° (ENE) 22:10:33 145.870
Oscar 11 30 Aug 22:07:56 22:11:56 38° 262° (W) 22:15:57 145.826/435.025
SO-50 30 Aug 22:10:01 22:13:33 20° 110° (ESE) 22:17:05 436.795
FUNcube-1 30 Aug 22:20:31 22:24:24 30° 263° (W) 22:28:15 145.935
ANTELSAT 30 Aug 22:28:56 22:31:37 16° 93° (E) 22:34:17 437.575/2403.000
AUBIESAT-1 30 Aug 22:31:19 22:34:59 24° 63° (ENE) 22:38:38 437.475
M-CUBED/EXP-1 PRIME 30 Aug 22:39:30 22:43:45 35° 66° (ENE) 22:47:59 437.505
UWE-3 30 Aug 22:40:11 22:41:55 12° 269° (W) 22:43:39 435.000/436.395/437.385
ZACube-1 30 Aug 22:45:29 22:48:09 16° 267° (W) 22:50:48 437.345
CUSAT 1 30 Aug 22:46:58 22:49:03 17° 86° (E) 22:51:25 437.405
AISAT 30 Aug 22:56:49 22:58:47 13° 64° (ENE) 23:00:45 437.250
TIGRISAT 30 Aug 22:57:51 23:01:43 33° 98° (E) 23:05:32 435.000
HUMSAT D 30 Aug 22:58:18 23:02:20 51° 260° (W) 23:06:21 437.325/437.525
RS-15 30 Aug 22:59:21 23:03:12 12° 94° (E) 23:07:05 29.354- 29.394
ESTCUBE 1 30 Aug 23:01:40 23:05:21 26° 69° (ENE) 23:09:03 437.505/2401.250
PRISM 30 Aug 23:09:49 23:12:19 16° 294° (WNW) 23:14:49 437.425
GONETS M04 30 Aug 23:11:27 23:20:17 66° 80° (E) 23:29:01
50 SAT 30 Aug 23:26:39 23:29:18 20° 70° (ENE) 23:31:58 437.505
UNISAT 6 30 Aug 23:27:24 23:31:42 82° 102° (ESE) 23:35:57 437.425
CUBEBUG 1 30 Aug 23:33:47 23:37:49 36° 71° (ENE) 23:41:52 437.445
SPROUT 30 Aug 23:35:52 23:38:25 15° 66° (ENE) 23:40:58 437.525
O/OREOS (USA 219) 30 Aug 23:35:58 23:40:35 69° 68° (ENE) 23:45:09 437.305
VELOX 1 30 Aug 23:41:19 23:45:23 36° 71° (ENE) 23:49:29 145.980
Cosmos 2499 30 Aug 23:42:38 23:49:43 80° 82° (E) 23:56:58 435.465 / 435.565
DX 1 30 Aug 23:46:30 23:50:13 28° 69° (ENE) 23:53:57 434.975-435.025
SO-50 30 Aug 23:49:04 23:53:43 44° 306° (NW) 23:58:21 436.795
DUCHIFAT 1 30 Aug 23:50:48 23:53:22 16° 93° (E) 23:55:55 145.980
QB50P2 30 Aug 23:58:08 00:01:35 24° 96° (E) 00:04:58 145.880/145.840
POLYITAN 1 31 Aug 00:00:38 00:04:04 24° 96° (E) 00:07:28 437.675
ANTELSAT 31 Aug 00:04:32 00:08:27 36° 288° (WNW) 00:12:22 437.575/2403.000
AUBIESAT-1 31 Aug 00:04:58 00:09:11 35° 258° (WSW) 00:13:25 437.475
NANOSAT C BR1 31 Aug 00:05:41 00:09:11 25° 96° (E) 00:12:41 145.865
M-CUBED/EXP-1 PRIME 31 Aug 00:14:28 00:18:13 24° 260° (W) 00:22:00 437.505
DANDE 31 Aug 00:17:48 00:20:22 78° 101° (E) 00:23:15 436.750
UKube-1 31 Aug 00:19:20 00:23:30 50° 73° (ENE) 00:27:42 .
CUSAT 1 31 Aug 00:28:50 00:30:56 16° 293° (WNW) 00:33:21 437.405
AISAT 31 Aug 00:30:20 00:34:43 58° 259° (W) 00:39:09 437.250
BUGSAT 1 31 Aug 00:30:28 00:33:20 18° 94° (E) 00:36:09 437.445
TIGRISAT 31 Aug 00:35:12 00:38:09 19° 293° (WNW) 00:41:06 435.000
PHONESAT 2.4 31 Aug 00:35:50 00:38:44 44° 155° (SSE) 00:41:37 2401.200-2431.200
ESTCUBE 1 31 Aug 00:38:16 00:42:03 27° 264° (W) 00:45:51 437.505/2401.250
JAS-2 31 Aug 00:45:40 00:52:30 47° 99° (E) 00:59:52 435.910
QB50P1 31 Aug 00:51:25 00:55:39 82° 282° (WNW) 00:59:50 145.935-145.965
50 SAT 31 Aug 01:00:01 01:02:45 21° 264° (W) 01:05:31 437.505
RS-15 31 Aug 01:01:49 01:13:05 68° 114° (ESE) 01:25:01 29.354- 29.394
POPSAT HIP 1 31 Aug 01:01:52 01:06:01 62° 285° (WNW) 01:10:09 437.405
GONETS M04 31 Aug 01:09:37 01:16:17 25° 278° (W) 01:22:55
SPROUT 31 Aug 01:09:53 01:13:59 43° 261° (W) 01:18:06 437.525
CUBEBUG 1 31 Aug 01:11:11 01:14:11 18° 266° (W) 01:17:13 437.445
TISAT 1 31 Aug 01:15:18 01:19:19 42° 72° (ENE) 01:23:20 437.305
VELOX 1 31 Aug 01:18:52 01:21:56 18° 266° (W) 01:25:03 145.980
DX 1 31 Aug 01:22:50 01:26:20 23° 264° (W) 01:29:52 434.975-435.025
DUCHIFAT 1 31 Aug 01:25:20 01:29:11 37° 288° (WNW) 01:33:00 145.980
QB50P2 31 Aug 01:33:50 01:37:17 25° 291° (WNW) 01:40:43 145.880/145.840
POLYITAN 1 31 Aug 01:36:21 01:39:46 24° 291° (WNW) 01:43:11 437.675
Cosmos 2499 31 Aug 01:38:23 01:41:51 14° 280° (W) 01:45:23 435.465 / 435.565
NANOSAT C BR1 31 Aug 01:41:28 01:44:48 23° 291° (WNW) 01:48:06 145.865
Oscar 19 31 Aug 01:52:04 01:56:32 28° 96° (E) 02:00:58 437.125/150
Gurwin Techsat 1B 31 Aug 01:54:52 01:57:17 13° 91° (E) 01:59:42 435.225
UKube-1 31 Aug 01:57:56 01:59:48 13° 268° (W) 02:01:41 .
ITUPSAT 1 31 Aug 02:04:13 02:08:14 28° 68° (ENE) 02:12:15 437.325
BUGSAT 1 31 Aug 02:05:08 02:08:45 30° 289° (WNW) 02:12:18 437.445
PHONESAT 2.4 31 Aug 02:12:06 02:15:03 54° 351° (N) 02:18:00 2401.200-2431.200
JAS-2 31 Aug 02:31:08 02:37:16 34° 293° (WNW) 02:43:55 435.910
SWISSCUBE 31 Aug 02:34:22 02:39:04 66° 74° (ENE) 02:43:47 437.505
BEESAT 31 Aug 02:50:59 02:55:44 89° 76° (ENE) 03:00:31 436.000
TISAT 1 31 Aug 02:52:47 02:55:08 14° 267° (W) 02:57:29 437.305
ITAMSAT 1 31 Aug 03:14:50 03:18:52 23° 95° (E) 03:22:54 435.822/435.867
RS-15 31 Aug 03:15:45 03:26:24 39° 318° (NW) 03:37:36 29.354- 29.394
Oscar 19 31 Aug 03:31:14 03:35:48 32° 291° (WNW) 03:40:20 437.125/150
Gurwin Techsat 1B 31 Aug 03:32:24 03:37:41 68° 287° (WNW) 03:42:57 435.225
KKS-1 31 Aug 03:34:50 03:38:35 27° 69° (ENE) 03:42:22 437.445
ITUPSAT 1 31 Aug 03:41:56 03:45:58 27° 264° (W) 03:50:02 437.325
AO-85 31 Aug 03:48:28 03:52:22 21° 110° (ESE) 03:56:10 145.980
PHONESAT 2.4 31 Aug 03:48:39 03:51:36 52° 8° (N) 03:54:32 2401.200-2431.200
STARS 31 Aug 04:00:18 04:03:53 24° 68° (ENE) 04:07:28 437.465
MOZHAYETS 4 31 Aug 04:07:41 04:12:14 81° 77° (ENE) 04:16:49
SWISSCUBE 31 Aug 04:15:55 04:17:15 11° 269° (W) 04:18:36 437.505
AO-7 31 Aug 04:38:17 04:46:29 59° 103° (ESE) 04:54:36 29.400- 29.500
Cosmos 2491 31 Aug 04:48:04 04:56:17 40° 75° (ENE) 05:04:25 435.465 / 435.565
ITAMSAT 1 31 Aug 04:53:38 04:58:25 39° 290° (WNW) 05:03:12 435.822/435.867
KKS-1 31 Aug 05:11:21 05:15:04 25° 264° (W) 05:18:48 437.445
PHONESAT 2.4 31 Aug 05:25:03 05:27:57 47° 204° (SSW) 05:30:49 2401.200-2431.200
AO-85 31 Aug 05:27:24 05:32:33 50° 304° (NW) 05:37:27 145.980
STARS 31 Aug 05:36:18 05:40:06 27° 263° (W) 05:43:54 437.465
RS-15 31 Aug 05:36:22 05:43:57 18° 351° (N) 05:51:40 29.354- 29.394
CUBESAT XI-V 31 Aug 05:38:14 05:42:50 89° 251° (WSW) 05:47:30 437.345
Cosmos 2504 31 Aug 05:45:48 05:47:16 11° 77° (ENE) 05:48:43 435.465 / 435.565
YUBILEINY 31 Aug 05:57:41 06:06:04 50° 89° (E) 06:14:26 435.215
GOMX 1 31 Aug 06:03:25 06:04:47 11° 87° (E) 06:06:08 467.674
NOAA 15 31 Aug 06:11:55 06:15:24 18° 93° (E) 06:18:52 137.62
Cubesat XI-IV 31 Aug 06:13:49 06:16:24 14° 91° (E) 06:18:59 437.490
LilacSat-2 31 Aug 06:20:15 06:21:34 11° 92° (E) 06:22:52 437.200
CUTE-I 31 Aug 06:23:36 06:27:06 18° 93° (E) 06:30:36 437.470
HORYU 2 31 Aug 06:25:22 06:29:48 78° 284° (WNW) 06:34:11 437.375
AO-7 31 Aug 06:31:51 06:38:44 30° 301° (WNW) 06:45:37 29.400- 29.500
SO-50 31 Aug 06:43:31 06:45:41 13° 42° (NE) 06:47:49 436.795
BRITE-PL 31 Aug 06:44:13 06:49:56 71° 101° (ESE) 06:55:22 437.365/2234.400
Cosmos 2491 31 Aug 06:44:58 06:53:02 42° 273° (W) 07:01:06 435.465 / 435.565
STRAND 1 31 Aug 06:56:48 07:01:19 33° 69° (ENE) 07:05:50 437.568
DOVE 4 31 Aug 07:25:00 07:29:25 33° 95° (E) 07:33:34 437.250
Cosmos 2504 31 Aug 07:30:58 07:39:20 73° 94° (E) 07:47:08 435.465 / 435.565
ISS 31 Aug 07:31:15 07:34:30 71° 138° (SE) 07:37:46 145.825
NOAA 18 31 Aug 07:36:01 07:41:30 76° 103° (ESE) 07:46:57 137.9125
GOMX 1 31 Aug 07:38:10 07:43:31 78° 284° (WNW) 07:48:30 467.674
NOAA 15 31 Aug 07:50:17 07:55:27 53° 288° (WNW) 08:00:35 137.62
Cubesat XI-IV 31 Aug 07:51:37 07:56:54 66° 286° (WNW) 08:02:10 437.490
LilacSat-2 31 Aug 07:52:30 07:56:02 39° 286° (WNW) 07:59:34 437.200
RS-15 31 Aug 07:53:23 08:02:58 25° 28° (NNE) 08:12:30 29.354- 29.394
YUBILEINY 31 Aug 07:55:18 08:03:03 34° 288° (WNW) 08:10:52 435.215
CUTE-I 31 Aug 08:02:16 08:07:25 52° 288° (WNW) 08:12:33 437.470
HO-68 31 Aug 08:13:02 08:19:05 29° 96° (E) 08:25:05 435.675
SEEDS 31 Aug 08:19:52 08:22:25 16° 93° (E) 08:24:58 437.485
PRISM 31 Aug 08:21:27 08:24:40 23° 69° (ENE) 08:27:55 437.425
SO-50 31 Aug 08:22:11 08:26:47 83° 240° (WSW) 08:31:14 436.795
BEESAT 2 31 Aug 08:22:18 08:23:51 12° 108° (ESE) 08:25:23 435.950
BRITE-PL 31 Aug 08:24:23 08:27:39 16° 298° (WNW) 08:30:53 437.365/2234.400
BEESAT 3 31 Aug 08:29:56 08:33:24 31° 113° (ESE) 08:36:53 437.485
STRAND 1 31 Aug 08:36:14 08:40:28 26° 264° (W) 08:44:43 437.568
AAUSAT CUBESAT 2 31 Aug 08:39:33 08:41:41 14° 92° (E) 08:43:48 437.432
CANX-2 31 Aug 08:48:27 08:52:40 58° 100° (E) 08:56:52 2200.000
COMPASS 1 31 Aug 08:50:38 08:54:04 24° 95° (E) 08:57:29 437.405
CUTE 1.7 + AOD 2 31 Aug 08:53:44 08:57:56 58° 100° (E) 09:02:07 437.475
UWE-3 31 Aug 08:54:29 08:55:57 12° 91° (E) 08:57:25 435.000/436.395/437.385
DOVE 4 31 Aug 09:02:59 09:06:53 24° 293° (WNW) 09:10:37 437.250
CUBEBUG 2 31 Aug 09:03:54 09:07:19 24° 95° (E) 09:10:42 437.445
ISS 31 Aug 09:09:02 09:11:16 17° 335° (NNW) 09:13:31 145.825
AIST 1 31 Aug 09:09:15 09:13:32 62° 94° (E) 09:17:53
CINEMA 3 31 Aug 09:13:10 09:17:32 62° 285° (WNW) 09:21:43 145.822/145.860
CUSAT 1 31 Aug 09:17:56 09:23:46 28° 73° (ENE) 09:30:14 437.405
NOAA 18 31 Aug 09:18:46 09:21:28 14° 300° (WNW) 09:24:10 137.9125
ANTELSAT 31 Aug 09:26:45 09:28:57 13° 65° (ENE) 09:31:07 437.575/2403.000
Cosmos 2504 31 Aug 09:27:24 09:33:18 21° 291° (WNW) 09:38:58 435.465 / 435.565
DELFI C3 31 Aug 09:44:38 09:45:29 11° 91° (E) 09:46:19 145.870
SEEDS 31 Aug 09:54:20 09:58:14 38° 287° (WNW) 10:02:09 437.485
TIGRISAT 31 Aug 09:54:43 09:58:27 25° 70° (ENE) 10:02:08 435.000
PRISM 31 Aug 09:56:26 09:59:50 25° 264° (W) 10:03:16 437.425
Oscar 11 31 Aug 09:56:39 10:00:45 42° 99° (E) 10:04:50 145.826/435.025
BEESAT 2 31 Aug 09:57:22 10:01:11 49° 303° (WNW) 10:05:04 435.950
HO-68 31 Aug 10:00:09 10:06:59 50° 292° (WNW) 10:13:47 435.675
RS-15 31 Aug 10:05:58 10:18:22 69° 56° (NE) 10:30:27 29.354- 29.394
BEESAT 3 31 Aug 10:08:05 10:11:05 21° 310° (NW) 10:14:07 437.485
FUNcube-1 31 Aug 10:09:46 10:13:49 55° 100° (E) 10:17:52 145.935
PCSat 31 Aug 10:11:56 10:15:26 18° 105° (ESE) 10:18:55 145.827
AAUSAT CUBESAT 2 31 Aug 10:13:23 10:17:20 42° 287° (WNW) 10:21:17 437.432
GONETS M04 31 Aug 10:19:27 10:23:02 13° 76° (ENE) 10:26:37
UNISAT 6 31 Aug 10:23:53 10:28:23 57° 74° (ENE) 10:32:47 437.425
COMPASS 1 31 Aug 10:26:06 10:29:30 25° 290° (WNW) 10:32:55 437.405
CANX-2 31 Aug 10:26:39 10:27:59 11° 295° (WNW) 10:29:20 2200.000
UWE-3 31 Aug 10:28:41 10:32:41 48° 286° (WNW) 10:36:40 435.000/436.395/437.385
CUTE 1.7 + AOD 2 31 Aug 10:31:52 10:33:15 11° 295° (WNW) 10:34:38 437.475
ZACube-1 31 Aug 10:33:37 10:37:44 69° 284° (WNW) 10:41:51 437.345
JUGNU 31 Aug 10:36:38 10:39:10 13° 175° (S) 10:41:43 437.505
CUBEBUG 2 31 Aug 10:40:30 10:43:51 23° 291° (WNW) 10:47:08 437.445
DUCHIFAT 1 31 Aug 10:43:28 10:43:41 10° 63° (ENE) 10:43:55 145.980
HUMSAT D 31 Aug 10:43:41 10:47:10 26° 96° (E) 10:50:39 437.325/437.525
QB50P2 31 Aug 10:49:51 10:52:21 15° 66° (ENE) 10:54:52 145.880/145.840
POLYITAN 1 31 Aug 10:52:18 10:54:51 16° 66° (ENE) 10:57:23 437.675
DANDE 31 Aug 10:52:59 10:58:56 59° 80° (E) 11:06:27 436.750
NANOSAT C BR1 31 Aug 10:56:48 10:59:26 16° 67° (ENE) 11:02:05 145.865
CUSAT 1 31 Aug 10:59:06 11:05:57 58° 265° (W) 11:13:43 437.405
JAS-2 31 Aug 11:00:37 11:02:40 12° 58° (ENE) 11:04:45 435.910
ANTELSAT 31 Aug 11:00:41 11:05:12 56° 260° (W) 11:09:37 437.575/2403.000
AIST 2 31 Aug 11:06:48 11:10:23 30° 114° (ESE) 11:14:01 435.215
DELFI C3 31 Aug 11:16:41 11:20:35 50° 285° (WNW) 11:24:28 145.870
BUGSAT 1 31 Aug 11:19:59 11:21:21 11° 64° (ENE) 11:22:42 437.445
TIGRISAT 31 Aug 11:31:06 11:35:00 27° 263° (W) 11:38:53 435.000
Oscar 11 31 Aug 11:33:55 11:36:31 16° 293° (WNW) 11:39:06 145.826/435.025
QB50P1 31 Aug 11:41:36 11:45:46 56° 74° (ENE) 11:49:57 145.935-145.965
AUBIESAT-1 31 Aug 11:46:53 11:49:23 17° 98° (E) 11:51:45 437.475
FUNcube-1 31 Aug 11:48:21 11:49:34 11° 295° (WNW) 11:50:48 145.935
POPSAT HIP 1 31 Aug 11:51:56 11:56:12 74° 77° (ENE) 12:00:28 437.405
PCSat 31 Aug 11:52:59 11:58:18 57° 300° (WNW) 12:03:39 145.827
M-CUBED/EXP-1 PRIME 31 Aug 11:55:41 11:59:04 27° 100° (E) 12:02:12 437.505
UNISAT 6 31 Aug 12:03:33 12:05:22 12° 268° (W) 12:07:10 437.425
GONETS M04 31 Aug 12:09:33 12:18:16 80° 95° (E) 12:27:07
DUCHIFAT 1 31 Aug 12:14:34 12:18:47 67° 258° (WSW) 12:23:02 145.980
Cosmos 2499 31 Aug 12:16:02 12:24:05 71° 94° (E) 12:31:34 435.465 / 435.565
HUMSAT D 31 Aug 12:19:31 12:22:38 21° 291° (WNW) 12:25:46 437.325/437.525
RS-15 31 Aug 12:19:33 12:29:55 34° 256° (WSW) 12:40:07 29.354- 29.394
SRMSAT 31 Aug 12:22:19 12:24:11 11° 172° (S) 12:26:03 437.500
AISAT 31 Aug 12:22:38 12:26:32 29° 97° (E) 12:30:24 437.250
QB50P2 31 Aug 12:23:44 12:27:48 42° 261° (W) 12:31:51 145.880/145.840
JUGNU 31 Aug 12:24:56 12:27:19 12° 186° (S) 12:29:42 437.505
ISS 31 Aug 12:25:59 12:26:41 10° 16° (NNE) 12:27:23 145.825
POLYITAN 1 31 Aug 12:26:14 12:30:17 41° 261° (W) 12:34:21 437.675
50 SAT 31 Aug 12:29:09 12:32:26 31° 98° (E) 12:35:42 437.505
NANOSAT C BR1 31 Aug 12:30:50 12:34:49 39° 262° (W) 12:38:50 145.865
ESTCUBE 1 31 Aug 12:31:36 12:36:09 72° 101° (ESE) 12:40:41 437.505/2401.250
DANDE 31 Aug 12:36:45 12:41:30 23° 269° (W) 12:47:02 436.750
JAS-2 31 Aug 12:41:38 12:46:50 80° 256° (WSW) 12:52:29 435.910
AIST 2 31 Aug 12:45:34 12:48:52 23° 310° (NW) 12:52:12 435.215
BUGSAT 1 31 Aug 12:51:59 12:56:10 59° 259° (W) 13:00:23 437.445
SPROUT 31 Aug 12:57:37 13:01:32 34° 98° (E) 13:05:25 437.525
CUBEBUG 1 31 Aug 12:59:53 13:04:20 84° 284° (WNW) 13:08:43 437.445
Oscar 19 31 Aug 13:07:00 13:11:39 35° 69° (ENE) 13:16:18 437.125/150
VELOX 1 31 Aug 13:09:05 13:13:34 85° 284° (WNW) 13:18:00 145.980
DX 1 31 Aug 13:11:44 13:16:07 67° 102° (ESE) 13:20:27 434.975-435.025
Gurwin Techsat 1B 31 Aug 13:13:44 13:17:22 19° 64° (ENE) 13:21:01 435.225
AUBIESAT-1 31 Aug 13:20:33 13:23:56 29° 295° (WNW) 13:27:06 437.475
QB50P1 31 Aug 13:20:45 13:21:51 11° 269° (W) 13:22:58 145.935-145.965
M-CUBED/EXP-1 PRIME 31 Aug 13:30:34 13:33:22 19° 298° (WNW) 13:36:02 437.505
UKube-1 31 Aug 13:43:57 13:48:16 67° 285° (WNW) 13:52:33 .
O/OREOS (USA 219) 31 Aug 13:46:13 13:50:41 70° 292° (WNW) 13:55:13 437.305
AO-7 31 Aug 13:47:57 13:51:52 14° 49° (NE) 13:55:46 29.400- 29.500
AISAT 31 Aug 13:59:20 14:02:50 23° 292° (WNW) 14:06:19 437.250
ISS 31 Aug 14:00:44 14:03:51 40° 34° (NE) 14:06:59 145.825
AO-85 31 Aug 14:01:23 14:05:35 87° 52° (NE) 14:09:31 145.980
50 SAT 31 Aug 14:03:39 14:05:43 15° 292° (WNW) 14:07:48 437.505
SRMSAT 31 Aug 14:09:51 14:12:28 13° 182° (S) 14:15:05 437.500
GONETS M04 31 Aug 14:09:59 14:16:05 20° 294° (WNW) 14:22:16
ESTCUBE 1 31 Aug 14:11:18 14:12:19 11° 297° (WNW) 14:13:21 437.505/2401.250
Cosmos 2499 31 Aug 14:12:10 14:17:45 20° 290° (WNW) 14:23:06 435.465 / 435.565
ITAMSAT 1 31 Aug 14:30:55 14:35:22 30° 68° (ENE) 14:39:48 435.822/435.867
SPROUT 31 Aug 14:34:16 14:37:11 18° 293° (WNW) 14:40:06 437.525
TISAT 1 31 Aug 14:36:15 14:40:28 82° 286° (WNW) 14:44:37 437.305
SWISSCUBE 31 Aug 14:37:17 14:40:42 19° 94° (E) 14:44:06 437.505
Oscar 19 31 Aug 14:46:43 14:50:57 26° 265° (W) 14:55:15 437.125/150
DX 1 31 Aug 14:50:41 14:51:42 11° 297° (WNW) 14:52:43 434.975-435.025
Gurwin Techsat 1B 31 Aug 14:51:43 14:56:53 52° 260° (W) 15:02:04 435.225
BEESAT 31 Aug 14:53:28 14:57:26 26° 96° (E) 15:01:22 436.000
AO-7 31 Aug 15:34:50 15:43:05 68° 69° (ENE) 15:51:21 29.400- 29.500
ISS 31 Aug 15:37:47 15:40:06 18° 230° (SW) 15:42:26 145.825
ITUPSAT 1 31 Aug 15:43:16 15:48:04 86° 107° (ESE) 15:52:50 437.325
MOZHAYETS 4 31 Aug 16:05:13 16:08:44 21° 94° (E) 16:12:15
ITAMSAT 1 31 Aug 16:10:12 16:14:44 30° 263° (W) 16:19:16 435.822/435.867
YUBILEINY 31 Aug 16:11:07 16:17:30 22° 67° (ENE) 16:23:48 435.215
SWISSCUBE 31 Aug 16:14:10 16:18:36 39° 289° (WNW) 16:23:01 437.505
BEESAT 31 Aug 16:31:02 16:35:09 30° 291° (WNW) 16:39:16 436.000
BEESAT 3 31 Aug 16:49:47 16:51:36 13° 45° (NE) 16:53:26 437.485
KKS-1 31 Aug 17:03:09 17:07:37 69° 102° (ESE) 17:12:01 437.445
GOMX 1 31 Aug 17:09:40 17:11:15 11° 60° (ENE) 17:12:49 467.674
HORYU 2 31 Aug 17:21:08 17:25:35 77° 75° (ENE) 17:30:02 437.375
NOAA 18 31 Aug 17:22:48 17:25:58 16° 61° (ENE) 17:29:07 137.9125
STARS 31 Aug 17:26:44 17:31:05 59° 101° (E) 17:35:23 437.465
Cosmos 2504 31 Aug 17:27:18 17:32:17 20° 68° (ENE) 17:37:14 435.465 / 435.565
AO-7 31 Aug 17:29:57 17:36:22 24° 265° (W) 17:42:50 29.400- 29.500
NOAA 15 31 Aug 17:30:01 17:34:10 24° 66° (ENE) 17:38:20 137.62
Cubesat XI-IV 31 Aug 17:33:34 17:37:24 20° 65° (ENE) 17:41:14 437.490
CUBESAT XI-V 31 Aug 17:37:03 17:41:01 26° 95° (E) 17:44:57 437.345
MOZHAYETS 4 31 Aug 17:41:50 17:45:56 33° 289° (WNW) 17:50:01
CUTE-I 31 Aug 17:43:25 17:47:42 25° 66° (ENE) 17:51:59 437.470
Cosmos 2491 31 Aug 17:46:41 17:54:55 49° 89° (E) 18:03:12 435.465 / 435.565
BRITE-PL 31 Aug 17:52:36 17:57:29 63° 74° (ENE) 18:02:46 437.365/2234.400
YUBILEINY 31 Aug 18:06:26 18:15:09 75° 267° (W) 18:23:49 435.215
BEESAT 2 31 Aug 18:16:52 18:20:47 49° 57° (ENE) 18:24:39 435.950
BEESAT 3 31 Aug 18:25:44 18:29:39 62° 243° (WSW) 18:33:33 437.485
DOVE 4 31 Aug 18:27:45 18:32:14 30° 69° (ENE) 18:36:48 437.250
LilacSat-2 31 Aug 18:32:00 18:35:49 70° 76° (ENE) 18:39:37 437.200
CINEMA 3 31 Aug 18:39:46 18:40:14 10° 62° (ENE) 18:40:43 145.822/145.860
HO-68 31 Aug 18:41:20 18:46:01 19° 58° (ENE) 18:50:43 435.675
KKS-1 31 Aug 18:42:31 18:43:33 11° 297° (WNW) 18:44:36 437.445
GOMX 1 31 Aug 18:43:14 18:48:23 89° 82° (E) 18:53:51 467.674
NOAA 18 31 Aug 19:00:29 19:06:00 69° 257° (WSW) 19:11:32 137.9125
PCSat 31 Aug 19:01:33 19:03:42 12° 43° (NE) 19:05:50 145.827
STARS 31 Aug 19:05:14 19:06:54 12° 296° (WNW) 19:08:34 437.465
NOAA 15 31 Aug 19:08:48 19:13:41 39° 262° (W) 19:18:37 137.62
STRAND 1 31 Aug 19:10:52 19:12:58 12° 91° (E) 19:15:04 437.568
Cubesat XI-IV 31 Aug 19:11:57 19:17:05 48° 260° (W) 19:22:15 437.490
CUBESAT XI-V 31 Aug 19:14:18 19:18:19 28° 290° (WNW) 19:22:20 437.345
Cosmos 2504 31 Aug 19:19:09 19:26:14 65° 267° (W) 19:33:21 435.465 / 435.565
AIST 1 31 Aug 19:19:52 19:22:00 13° 71° (ENE) 19:24:08
CUTE-I 31 Aug 19:22:36 19:27:31 38° 262° (W) 19:32:27 437.470
AIST 2 31 Aug 19:30:28 19:32:48 14° 46° (NE) 19:35:07 435.215
BRITE-PL 31 Aug 19:33:58 19:36:29 14° 272° (W) 19:39:04 437.365/2234.400
CANX-2 31 Aug 19:39:31 19:43:13 32° 72° (ENE) 19:46:58 2200.000
COMPASS 1 31 Aug 19:40:58 19:42:58 13° 66° (ENE) 19:44:58 437.405
Cosmos 2491 31 Aug 19:44:15 19:51:55 34° 288° (WNW) 19:59:42 435.465 / 435.565
CUTE 1.7 + AOD 2 31 Aug 19:44:41 19:48:23 31° 72° (ENE) 19:52:07 437.475
BEESAT 2 31 Aug 19:56:28 19:58:09 12° 252° (WSW) 19:59:49 435.950
CUBEBUG 2 31 Aug 20:00:20 20:03:36 19° 68° (ENE) 20:06:48 437.445
DOVE 4 31 Aug 20:05:10 20:09:47 32° 265° (W) 20:14:30 437.250
YUBILEINY 31 Aug 20:07:36 20:10:18 12° 285° (WNW) 20:13:00 435.215
CINEMA 3 31 Aug 20:11:36 20:16:38 89° 257° (WSW) 20:21:35 145.822/145.860
HO-68 31 Aug 20:25:41 20:32:53 81° 255° (WSW) 20:40:07 435.675
